TimePDT,TemperatureF,Dew PointF,Humidity,Sea Level PressureIn,VisibilityMPH,Wind Direction,Wind SpeedMPH,Gust SpeedMPH,PrecipitationIn,Events,Conditions,WindDirDegrees,DateUTC
12:55 AM,43.7,43.7,100,30.06,10.0,NNE,6.9,-,N/A,,Overcast,30,2012-11-03 07:55:00
1:55 AM,44.1,44.1,100,30.07,10.0,NNE,8.1,-,N/A,,Overcast,30,2012-11-03 08:55:00
2:55 AM,43.2,43.2,100,30.07,10.0,NNE,4.6,-,N/A,,Overcast,30,2012-11-03 09:55:00
3:39 AM,41.0,41.0,100,30.06,8.0,NE,3.5,-,N/A,,Partly Cloudy,40,2012-11-03 10:39:00
3:55 AM,40.5,40.5,100,30.06,5.0,NE,5.8,-,N/A,,Scattered Clouds,50,2012-11-03 10:55:00
4:01 AM,41.0,41.0,100,30.06,6.0,NE,5.8,-,N/A,,Mostly Cloudy,40,2012-11-03 11:01:00
4:55 AM,39.9,39.9,100,30.06,2.5,NE,4.6,-,N/A,,Partly Cloudy,50,2012-11-03 11:55:00
4:56 AM,39.2,39.2,100,30.07,2.5,NE,4.6,-,N/A,,Partly Cloudy,50,2012-11-03 11:56:00
4:58 AM,39.2,39.2,100,30.07,1.8,NE,4.6,-,N/A,,Scattered Clouds,50,2012-11-03 11:58:00
5:00 AM,39.2,39.2,100,30.07,1.2,NE,4.6,-,N/A,,Scattered Clouds,50,2012-11-03 12:00:00
5:02 AM,39.2,39.2,100,30.07,1.0,NE,4.6,-,N/A,,Mist,50,2012-11-03 12:02:00
5:05 AM,39.2,39.2,100,30.07,0.8,NE,5.8,-,N/A,,Mist,40,2012-11-03 12:05:00
5:07 AM,41.0,41.0,100,30.07,0.8,NE,5.8,-,N/A,,Mist,40,2012-11-03 12:07:00
5:11 AM,41.0,41.0,100,30.06,0.8,NE,5.8,-,N/A,,Mist,40,2012-11-03 12:11:00
5:25 AM,41.0,41.0,100,30.07,0.8,NE,3.5,-,N/A,,Mist,40,2012-11-03 12:25:00
5:29 AM,41.0,41.0,100,30.07,0.8,NE,4.6,-,N/A,,Mostly Cloudy,40,2012-11-03 12:29:00
5:31 AM,41.0,41.0,100,30.07,1.0,NE,5.8,-,N/A,,Mostly Cloudy,40,2012-11-03 12:31:00
5:33 AM,41.0,41.0,100,30.07,1.0,NE,5.8,-,N/A,,Mostly Cloudy,40,2012-11-03 12:33:00
5:35 AM,41.0,41.0,100,30.07,1.2,NE,6.9,-,N/A,,Overcast,40,2012-11-03 12:35:00
5:37 AM,41.0,41.0,100,30.07,1.5,NE,6.9,-,N/A,,Overcast,40,2012-11-03 12:37:00
5:39 AM,41.0,41.0,100,30.08,2.0,NE,6.9,-,N/A,,Overcast,40,2012-11-03 12:39:00
5:42 AM,41.0,41.0,100,30.08,3.0,NE,8.1,-,N/A,,Overcast,40,2012-11-03 12:42:00
5:55 AM,41.9,41.9,100,30.08,10.0,NE,5.8,-,0.00,,Overcast,50,2012-11-03 12:55:00
6:55 AM,42.6,42.6,100,30.08,10.0,NE,5.8,-,N/A,,Overcast,40,2012-11-03 13:55:00
7:21 AM,42.8,42.8,100,30.08,10.0,NE,6.9,-,N/A,Rain,Light Rain,40,2012-11-03 14:21:00
7:55 AM,42.8,42.8,100,30.09,10.0,ENE,3.5,-,0.00,Rain,Light Rain,60,2012-11-03 14:55:00
8:55 AM,43.3,43.3,100,30.09,10.0,East,3.5,-,0.02,Rain,Light Rain,90,2012-11-03 15:55:00
9:09 AM,42.8,42.8,100,30.10,10.0,Calm,Calm,-,N/A,,Overcast,0,2012-11-03 16:09:00
9:24 AM,44.6,44.6,100,30.10,10.0,East,3.5,-,N/A,Rain,Light Rain,100,2012-11-03 16:24:00
9:55 AM,45.1,45.1,100,30.10,10.0,East,3.5,-,0.01,Rain,Light Rain,100,2012-11-03 16:55:00
10:04 AM,44.6,44.6,100,30.10,10.0,ESE,3.5,-,N/A,,Overcast,120,2012-11-03 17:04:00
10:05 AM,44.6,44.6,100,30.10,10.0,ESE,4.6,-,N/A,,Overcast,120,2012-11-03 17:05:00
10:06 AM,44.6,44.6,100,30.10,10.0,ESE,4.6,-,N/A,Rain,Light Rain,120,2012-11-03 17:06:00
10:13 AM,46.4,46.4,100,30.10,10.0,SE,4.6,-,N/A,Rain,Light Rain,130,2012-11-03 17:13:00
10:18 AM,46.4,46.4,100,30.10,10.0,ESE,3.5,-,N/A,,Light Drizzle,120,2012-11-03 17:18:00
10:22 AM,46.4,46.4,100,30.10,10.0,ESE,4.6,-,N/A,,Overcast,110,2012-11-03 17:22:00
10:23 AM,46.4,46.4,100,30.10,10.0,ESE,4.6,-,N/A,,Light Drizzle,110,2012-11-03 17:23:00
10:25 AM,46.4,46.4,100,30.10,10.0,ESE,4.6,-,N/A,,Overcast,110,2012-11-03 17:25:00
10:28 AM,46.4,46.4,100,30.11,10.0,SE,3.5,-,N/A,,Overcast,130,2012-11-03 17:28:00
10:31 AM,46.4,46.4,100,30.11,10.0,SE,3.5,-,N/A,,Light Drizzle,140,2012-11-03 17:31:00
10:55 AM,45.9,45.9,100,30.11,10.0,Variable,4.6,-,0.01,Rain,Light Rain,0,2012-11-03 17:55:00
10:58 AM,46.4,46.4,100,30.11,10.0,SSE,5.8,-,N/A,Rain,Rain,150,2012-11-03 17:58:00
11:06 AM,46.4,46.4,100,30.11,10.0,SSE,8.1,-,N/A,Rain,Light Rain,150,2012-11-03 18:06:00
11:11 AM,46.4,46.4,100,30.11,10.0,SSE,8.1,-,N/A,Rain,Light Rain,150,2012-11-03 18:11:00
11:16 AM,46.4,46.4,100,30.11,10.0,SSE,8.1,-,N/A,Rain,Light Rain,150,2012-11-03 18:16:00
11:18 AM,46.4,46.4,100,30.11,6.0,South,10.4,-,N/A,Rain,Light Rain,180,2012-11-03 18:18:00
11:34 AM,46.4,46.4,100,30.11,7.0,South,6.9,-,N/A,Rain,Light Rain,190,2012-11-03 18:34:00
11:55 AM,47.1,47.1,100,30.10,5.0,South,8.1,-,0.06,Rain,Light Rain,190,2012-11-03 18:55:00
12:31 PM,48.2,48.2,100,30.10,8.0,SSW,9.2,-,N/A,Rain,Light Rain,200,2012-11-03 19:31:00
12:55 PM,47.8,47.8,100,30.10,9.0,SSW,9.2,-,0.03,,Light Drizzle,200,2012-11-03 19:55:00
1:12 PM,48.2,48.2,100,30.09,6.0,SSW,9.2,-,N/A,Rain,Light Rain,200,2012-11-03 20:12:00
1:18 PM,48.2,48.2,100,30.10,5.0,SSW,5.8,-,N/A,,Light Drizzle,200,2012-11-03 20:18:00
1:22 PM,48.2,48.2,100,30.09,7.0,South,9.2,-,N/A,,Overcast,190,2012-11-03 20:22:00
1:55 PM,48.4,48.4,100,30.09,10.0,South,10.4,-,0.00,,Overcast,190,2012-11-03 20:55:00
2:06 PM,48.2,48.2,100,30.09,10.0,SSW,9.2,-,N/A,,Overcast,200,2012-11-03 21:06:00
2:36 PM,48.2,48.2,100,30.09,10.0,SSW,10.4,-,N/A,,Overcast,200,2012-11-03 21:36:00
2:55 PM,49.5,49.5,100,30.09,10.0,SSW,10.4,-,N/A,,Overcast,210,2012-11-03 21:55:00
3:10 PM,50.0,50.0,100,30.09,10.0,SSW,10.4,-,N/A,,Overcast,200,2012-11-03 22:10:00
3:30 PM,50.0,50.0,100,30.10,10.0,SSW,10.4,-,N/A,,Mostly Cloudy,200,2012-11-03 22:30:00
3:35 PM,50.0,50.0,100,30.11,10.0,SSW,11.5,-,N/A,,Mostly Cloudy,210,2012-11-03 22:35:00
3:55 PM,49.6,49.6,100,30.12,10.0,SSW,10.4,-,N/A,,Scattered Clouds,210,2012-11-03 22:55:00
4:05 PM,50.0,50.0,100,30.12,10.0,SSW,9.2,-,N/A,,Scattered Clouds,210,2012-11-03 23:05:00
4:23 PM,50.0,50.0,100,30.12,10.0,SSW,9.2,-,N/A,,Scattered Clouds,200,2012-11-03 23:23:00
4:49 PM,50.0,50.0,100,30.12,10.0,South,9.2,-,N/A,,Overcast,190,2012-11-03 23:49:00
4:55 PM,49.3,49.3,100,30.11,10.0,SSW,9.2,-,N/A,,Overcast,200,2012-11-03 23:55:00
5:38 PM,50.0,50.0,100,30.13,10.0,SSW,5.8,-,N/A,,Overcast,200,2012-11-04 00:38:00
5:55 PM,49.3,49.3,100,30.13,10.0,South,5.8,-,N/A,,Overcast,190,2012-11-04 00:55:00
6:55 PM,49.1,49.1,100,30.14,10.0,SSW,5.8,-,N/A,,Mostly Cloudy,200,2012-11-04 01:55:00
7:55 PM,48.7,48.7,100,30.14,10.0,South,8.1,-,N/A,,Overcast,180,2012-11-04 02:55:00
8:21 PM,48.2,48.2,100,30.13,10.0,South,10.4,-,N/A,,Overcast,190,2012-11-04 03:21:00
8:55 PM,49.3,49.3,100,30.14,10.0,South,12.7,-,N/A,,Overcast,190,2012-11-04 03:55:00
9:06 PM,50.0,50.0,100,30.14,10.0,South,13.8,-,N/A,,Overcast,190,2012-11-04 04:06:00
9:55 PM,49.5,49.5,100,30.16,10.0,South,9.2,-,N/A,,Mostly Cloudy,190,2012-11-04 04:55:00
10:00 PM,50.0,50.0,100,30.16,10.0,South,8.1,-,N/A,,Mostly Cloudy,190,2012-11-04 05:00:00
10:02 PM,50.0,50.0,100,30.16,10.0,SSW,8.1,-,N/A,Rain,Light Rain,200,2012-11-04 05:02:00
10:30 PM,50.0,50.0,100,30.17,10.0,South,9.2,-,N/A,,Mostly Cloudy,190,2012-11-04 05:30:00
10:55 PM,49.1,49.1,100,30.17,10.0,SSW,10.4,-,0.00,,Overcast,200,2012-11-04 05:55:00
11:55 PM,48.6,48.6,100,30.17,10.0,South,12.7,21.9,N/A,,Scattered Clouds,190,2012-11-04 06:55:00